sat.trackr.live / text

‹ back to catalog

JILIN-1 GAOFEN 3A

NORAD 44312 · 2019-032C

PAYLOAD ACTIVE UNKNOWN

§ Identity

Operator
Country
PRC
Launch date
2019-06-05
Launch site
YSLA
Launch vehicle
Mass (kg)
RCS (m²)

External: N2YO · Heavens-Above · Gunter

§ Orbital elements

Epoch: 2026-09-10T03:52:16.740768Z

Period
93.86 min
Inclination
44.9730°
Eccentricity
0.0005788
Mean motion
15.34276369 rev/d
Perigee alt
459.1 km
Apogee alt
467.0 km
Semi-major
6,841.2 km
B*
2.8710e-4
RAAN
248.6697°
Arg perigee
78.3008°
Mean anomaly
281.8526°
Rev number
40,088

§ Raw data

JILIN-1 GAOFEN 3A1 44312U 19032C   26253.16130487  .00009415  00000+0  28710-3 0  99962 44312  44.9730 248.6697 0005788  78.3008 281.8526 15.34276369400887

JSON: /api/v1/satellites/44312 · /tle

For live sub-satellite position, see the globe view (requires WebGL).

§ Visibility from observer

Set your observer location to see the next 7 days of passes ≥ 10°. The values pass through the URL so the page stays shareable.

No JS? Fill the form by hand. The geolocation button needs JavaScript.

§ Radio — SatNOGS DB

ModeDescriptionDownlinkUplink
FM Mode U - Possibly Downlink 401.126 MHz

1 transmitter · refreshed weekly from db.satnogs.org